RH
6 7 9 10 10 13 26 33 16 11 8 4 4 12 12 17 29 48 50 56 64 73 75 62 53 51 56 50 46 42 46 31 31 33 39 17 16 12 10 7 8 7 6 7 9 13 21
5 9 12 12 10 12 20 36 30 14 9 4 6 12 15 28 38 50 57 57 62 61 62 66 68 66 62 58 58 55 42 35 67 57 58 27 30 16 13 10 8 7 7 8 7 10 15
6 10 15 16 15 12 14 26 34 20 10 4 9 13 21 39 47 55 69 77 69 62 60 58 52 50 56 61 65 57 37 51 68 83 85 46 40 25 18 16 10 7 7 8 7 7 12
7 9 15 18 19 17 14 16 30 30 11 5 12 15 24 47 53 60 77 81 72 65 72 62 58 55 61 83 79 50 40 81 75 100 100 81 56 47 27 20 13 8 8 7 7 7 8
8 7 11 14 17 19 19 16 22 36 13 5 14 19 29 45 59 63 73 75 65 67 72 64 63 62 65 84 77 46 47 74 97 100 100 100 75 63 51 26 19 15 8 7 7 7 7
13 12 11 10 10 14 20 18 18 37 16 6 16 22 31 42 58 60 72 78 79 84 73 72 80 65 67 86 82 56 55 82 97 100 99 95 99 79 79 44 26 16 8 7 7 7 6
22 34 39 28 14 8 13 20 19 30 23 7 17 24 33 37 48 55 71 82 86 89 77 67 78 69 62 78 99 97 55 100 92 100 100 99 96 69 79 66 52 21 11 7 8 7 8
29 34 47 52 49 22 8 16 21 23 32 8 17 25 34 38 48 52 59 83 89 94 85 73 81 87 72 61 71 94 55 65 80 91 100 95 98 100 94 81 71 36 16 10 10 9 8
45 28 39 42 50 49 14 10 21 22 36 10 14 26 35 40 51 60 59 67 90 100 99 83 84 98 82 99 74 70 56 63 83 77 85 89 99 100 99 70 100 44 32 21 13 10 8
53 45 25 41 66 52 45 8 15 22 28 23 10 24 35 38 47 58 66 70 75 83 96 100 99 97 93 97 100 100 99 91 100 87 55 68 87 90 100 100 99 46 73 36 13 13 9
35 56 39 37 59 63 55 28 9 19 25 40 10 22 32 38 44 51 64 69 70 80 82 90 93 94 90 97 90 99 100 100 100 100 100 91 64 97 91 100 94 54 100 48 12 16 11
47 27 57 51 42 60 57 51 9 13 23 36 25 14 28 37 41 46 54 64 64 66 78 94 89 93 98 89 96 95 100 98 100 100 100 100 100 100 100 96 99 100 100 43 37 27 14
50 41 24 54 56 37 42 63 32 10 18 27 40 11 24 35 38 42 49 57 63 71 68 82 94 99 99 100 100 100 100 100 100 100 100 100 99 100 98 100 99 98 99 99 64 32 13
26 42 33 17 50 51 29 67 52 10 13 24 32 29 14 30 38 39 44 50 59 71 75 79 91 97 98 100 100 100 100 100 100 98 97 100 100 91 95 99 95 100 99 70 27 18 14
18 20 31 23 14 52 41 53 59 26 11 17 28 42 15 23 34 38 38 43 46 56 68 74 65 66 81 92 96 95 94 95 92 96 100 100 98 81 99 99 88 99 73 64 51 32 31
14 15 17 22 17 12 55 36 68 53 13 13 21 32 44 13 27 36 39 39 42 46 52 63 66 70 74 77 67 67 77 91 97 100 97 95 97 82 65 78 96 72 75 63 54 46 34
19 16 14 14 17 12 24 46 64 56 36 15 17 26 38 38 13 28 39 42 38 39 42 46 49 54 68 78 73 62 67 71 82 82 85 86 84 89 86 79 77 73 66 57 51 44 37
21 22 18 13 12 12 10 54 43 68 57 29 16 20 28 40 38 14 29 38 42 42 38 38 43 44 48 57 66 71 64 60 61 69 82 77 86 88 76 71 67 58 51 44 41 39 35
20 25 24 20 16 12 12 25 60 58 63 53 33 18 19 32 40 44 16 26 34 42 44 44 38 38 43 44 42 43 48 50 61 70 74 86 86 78 66 62 56 45 39 34 33 32 28
26 32 30 27 23 19 19 11 62 50 69 61 53 28 21 22 32 38 48 27 20 29 35 42 45 43 39 38 37 37 34 32 30 31 33 45 51 49 49 49 48 38 33 29 25 22 19
24 22 25 28 27 23 23 17 23 65 54 70 60 54 32 22 25 29 37 43 48 20 24 29 32 36 39 43 47 43 38 38 30 28 27 28 30 31 32 32 31 27 24 22 21 19 18
21 26 28 26 25 24 23 20 13 58 57 58 73 62 56 39 27 27 31 35 42 47 57 26 21 29 27 27 29 32 34 37 38 33 31 28 29 28 27 25 25 24 24 23 23 22 20
26 30 29 24 20 20 20 21 19 21 67 52 53 74 60 58 50 40 43 39 36 37 41 47 51 52 36 24 22 25 24 23 22 24 25 27 24 23 22 22 22 20 17 14 11 9 10
31 30 28 28 27 29 27 24 20 14 50 68 48 62 73 59 60 59 54 56 58 51 44 40 40 41 44 48 51 52 47 35 25 21 20 20 18 18 18 15 16 19 18 24 35 39 39
47 44 42 41 41 41 35 40 31 19 13 65 65 55 69 75 59 57 63 61 63 67 66 65 62 56 46 43 43 45 48 47 53 53 52 51 50 48 48 48 44 40 37 32 24 18 15
64 64 63 67 61 54 49 44 49 40 19 14 70 56 63 73 76 62 58 60 63 64 64 65 65 67 67 62 58 55 55 54 48 48 43 40 38 32 25 22 21 19 18 18 20 19 21
86 79 67 76 71 65 68 60 54 50 30 18 20 73 55 58 69 77 64 60 62 63 64 62 62 55 57 53 53 48 47 40 37 35 34 30 28 24 23 22 21 20 26 28 26 25 27
94 94 88 87 90 74 62 62 54 49 43 26 15 18 56 56 57 70 78 70 64 64 67 64 60 54 44 44 47 42 44 38 37 39 39 35 31 28 25 25 22 27 28 30 31 31 29
100 98 93 90 84 82 53 46 39 30 36 32 24 16 45 79 58 60 66 76 72 69 70 69 67 56 48 45 43 44 48 50 48 45 44 39 40 37 33 31 30 29 29 30 28 28 32
Wind_Speed
10 11 15 16 18 19 22 26 30 36 42 39 45 49 47 46 42 39 36 28 25 23 25 27 34 38 39 37 37 37 36 38 41 48 54 49 47 53 63 74 74 79 72 66 64 56 54
9 11 15 16 18 21 23 27 32 36 43 40 46 48 46 44 39 37 33 22 18 18 20 22 27 30 33 34 32 32 30 31 33 36 46 52 47 46 51 60 70 76 73 65 65 60 56
9 11 14 16 19 22 25 29 32 36 43 40 46 45 44 42 39 35 29 18 16 13 12 12 14 18 22 24 30 26 25 28 30 33 40 52 49 46 42 48 57 69 69 64 66 63 60
9 10 13 16 18 22 26 29 32 37 42 41 45 43 42 39 37 33 21 17 13 11 11 12 15 22 26 23 21 19 20 23 21 26 35 42 51 48 44 46 53 62 68 71 66 64 62
9 10 12 15 18 22 26 29 32 37 41 39 42 41 42 38 35 31 20 19 17 16 14 15 15 13 14 13 16 14 16 24 22 24 30 29 46 46 45 46 49 53 66 77 66 66 62
8 10 12 14 17 21 25 28 32 35 39 38 40 40 41 40 35 30 21 19 20 20 19 17 19 16 12 9 16 13 10 13 18 24 30 40 37 42 39 45 47 49 59 70 66 67 66
9 10 13 15 17 19 23 27 31 34 37 37 37 37 39 40 37 32 23 17 20 15 15 18 19 13 9 6 9 13 6 8 16 23 32 42 36 37 32 33 33 41 50 63 60 63 57
9 9 12 15 18 20 21 25 30 32 35 37 35 34 36 37 38 35 28 18 19 17 19 22 21 14 6 8 3 11 10 9 13 22 25 31 36 35 33 32 28 40 46 53 57 55 55
9 9 11 14 17 19 21 23 28 31 33 35 34 31 33 35 36 35 32 25 19 16 18 20 16 17 8 8 6 1 10 10 15 16 22 28 27 34 31 28 30 39 43 48 51 51 50
10 10 11 13 16 18 20 22 25 29 32 34 33 30 30 32 34 35 33 28 22 18 20 20 20 21 10 9 8 10 6 11 11 20 20 21 30 35 19 28 31 39 38 42 48 48 48
10 10 10 12 15 18 19 21 23 27 30 32 33 29 28 29 31 33 34 29 24 20 20 19 22 19 24 18 17 17 14 9 14 14 22 16 25 27 30 29 30 29 37 37 43 45 44
13 11 11 12 14 17 19 19 21 24 28 30 32 29 26 27 29 30 30 30 28 25 23 14 15 13 16 13 15 13 9 17 18 17 21 24 20 24 31 30 33 37 34 38 36 41 42
17 13 12 13 14 15 18 18 18 21 24 28 30 30 26 25 26 28 28 29 29 27 22 20 13 9 7 8 9 8 11 16 12 15 12 11 14 27 33 40 37 41 34 36 37 42 41
21 17 14 13 15 15 16 18 16 18 21 25 27 28 26 23 23 25 26 28 29 28 26 21 20 18 18 14 12 13 10 9 7 10 7 12 25 32 36 38 41 33 39 36 41 43 40
25 21 17 14 14 15 15 17 15 15 18 21 24 25 27 23 20 22 25 24 24 27 27 24 23 21 19 17 13 14 15 17 19 18 20 24 25 32 29 34 39 35 33 33 32 33 31
28 24 20 16 14 14 15 14 16 14 15 18 21 23 25 25 20 19 22 22 23 23 22 25 26 25 19 16 13 12 14 14 16 17 19 21 25 29 29 31 34 36 32 31 31 30 29
31 27 23 19 16 14 14 14 15 13 12 15 17 20 22 21 22 18 17 18 20 21 21 20 20 23 24 20 18 15 15 15 13 13 16 18 26 29 30 31 34 36 31 30 29 26 24
34 31 27 22 19 15 13 14 14 14 11 12 14 16 18 20 20 21 16 15 16 18 19 19 18 19 23 23 22 20 19 17 15 15 13 15 24 27 29 33 35 35 32 31 28 27 22
37 34 30 25 21 17 14 13 14 13 11 9 11 12 14 16 19 19 19 15 13 14 16 17 18 18 18 18 20 23 23 20 17 13 12 17 22 26 29 33 35 34 33 31 29 26 21
43 37 34 30 25 20 16 14 13 13 11 9 9 9 11 12 14 17 18 18 16 13 13 14 15 17 17 16 19 20 22 22 21 16 12 13 15 17 20 23 28 29 29 28 26 24 21
47 41 37 34 29 25 20 16 13 13 11 10 8 7 9 9 10 12 14 16 16 16 14 11 12 13 14 15 16 17 18 20 22 22 18 14 12 12 13 17 21 22 20 21 21 21 20
48 45 41 37 33 30 25 20 16 15 14 11 9 7 7 7 7 8 9 11 13 15 15 14 13 11 11 12 13 14 15 15 16 18 19 17 15 15 14 13 13 13 12 11 10 8 9
51 49 45 40 37 33 30 25 21 17 16 15 11 10 9 7 7 5 5 6 8 10 12 13 13 14 14 13 12 11 11 12 13 13 13 12 11 10 10 9 8 8 7 6 5 4 4
53 51 48 43 40 36 34 28 25 22 19 18 16 12 11 10 9 8 5 3 4 5 6 7 8 10 11 12 13 13 13 12 11 11 10 10 9 9 9 9 8 7 6 5 3 2 1
56 53 50 47 45 40 37 32 29 27 24 20 19 16 15 13 13 12 11 8 5 4 4 4 4 4 4 6 7 8 9 10 11 11 10 10 9 10 9 6 5 4 3 2 1 3 4
60 56 53 50 48 45 40 37 33 31 29 25 22 21 18 16 15 15 14 14 12 10 8 7 7 6 4 1 1 2 4 5 5 6 5 5 6 6 7 5 2 3 2 2 4 8 10
68 62 56 56 53 49 44 42 38 35 35 31 27 24 25 22 20 19 19 18 17 16 15 14 12 11 10 8 6 5 4 3 2 2 0 1 3 3 2 1 4 4 5 10 13 14 19
79 74 68 64 60 55 50 47 43 39 39 36 32 29 28 29 25 23 23 23 24 22 21 19 18 16 15 14 12 11 9 8 7 6 5 4 3 5 5 7 8 10 13 18 21 25 28
66 75 73 67 62 59 54 51 46 43 42 38 37 36 33 34 32 28 26 28 29 29 27 26 24 23 21 20 19 17 15 12 10 9 11 11 12 12 15 13 16 19 23 26 29 32 33
Wind_Direction
307 323 325 333 338 340 344 344 347 348 346 339 336 335 334 334 331 326 323 312 306 295 273 262 254 261 264 264 266 270 266 255 249 245 236 228 226 226 227 228 226 224 223 224 225 224 225
306 324 330 338 343 348 349 352 352 348 348 343 341 340 341 341 335 337 334 329 322 303 282 271 264 263 267 269 272 272 265 247 247 241 228 221 219 219 220 224 225 223 223 222 224 222 223
316 327 334 340 350 353 357 358 352 350 350 345 346 345 346 346 343 347 339 339 336 320 303 288 273 269 269 272 270 263 255 239 241 231 219 221 223 219 217 216 216 220 220 220 221 222 223
325 326 333 341 351 357 1 359 356 353 353 349 350 350 351 351 348 353 346 343 345 333 341 327 307 289 278 266 258 251 244 233 234 229 222 216 225 223 217 215 216 215 216 216 217 220 222
336 328 334 341 349 0 1 359 359 357 355 353 353 354 355 356 353 355 352 354 356 4 1 359 344 328 317 269 240 239 246 233 230 220 212 208 219 223 220 215 214 213 213 217 214 218 221
342 339 340 341 347 359 0 0 360 0 357 356 358 357 359 360 358 355 349 347 356 4 359 357 356 354 348 263 233 211 245 227 225 213 205 196 202 211 211 210 215 214 213 216 215 216 219
340 344 345 346 351 357 360 1 0 2 360 359 1 0 2 4 5 2 354 335 343 352 349 4 16 29 10 351 258 218 194 198 199 203 201 205 206 212 211 212 213 210 213 215 210 216 217
330 337 339 345 352 357 359 2 2 2 1 1 3 4 5 6 9 9 7 354 343 344 346 352 2 29 28 33 355 200 192 166 179 207 206 204 207 202 199 204 205 203 206 209 205 209 211
325 329 332 341 351 355 357 2 2 1 2 3 4 6 8 7 9 10 9 11 2 353 346 354 15 15 25 32 50 67 203 198 179 178 192 196 192 191 189 193 208 197 201 207 202 203 207
313 325 327 336 349 353 355 360 3 1 3 4 5 7 10 10 10 12 14 13 22 30 32 45 42 31 43 70 89 83 130 195 203 176 171 190 194 192 181 203 202 191 192 203 194 196 203
297 314 324 332 342 348 354 357 1 2 4 5 6 9 11 14 13 15 18 21 25 27 40 52 46 62 62 73 92 89 96 108 130 137 153 167 198 189 202 198 185 177 185 197 191 191 196
278 301 316 325 333 340 351 354 359 3 4 6 7 9 13 17 15 18 19 24 27 30 39 52 50 65 46 57 93 111 102 104 151 152 145 160 184 189 181 157 160 177 175 186 181 187 195
266 280 303 320 333 338 347 351 356 2 4 7 7 9 15 17 18 20 24 27 27 29 30 41 27 34 16 98 76 122 147 144 155 173 176 186 175 171 149 157 168 173 172 167 176 183 191
256 268 284 307 326 336 340 348 351 359 5 7 8 9 16 19 22 23 27 31 35 39 41 41 48 66 66 73 89 102 138 162 137 139 146 151 155 150 158 167 168 170 158 170 174 181 187
251 258 271 290 312 328 335 345 347 355 2 7 7 10 17 21 23 26 27 29 35 44 50 49 47 48 46 36 71 100 104 111 117 122 129 130 143 148 177 154 173 160 167 171 170 173 181
245 252 261 275 295 315 330 337 348 346 0 5 7 9 19 18 23 29 32 30 35 41 46 53 55 48 50 48 56 79 95 109 119 122 130 134 147 147 153 164 168 171 167 169 165 171 175
239 247 253 263 278 298 321 325 343 339 355 1 6 8 18 19 26 30 35 32 37 42 46 52 62 65 57 58 57 69 77 83 96 116 134 142 144 148 154 163 162 160 159 162 159 165 170
235 242 250 255 265 282 303 320 319 337 338 356 2 8 15 20 27 34 36 36 37 43 47 49 58 72 74 69 65 63 69 72 78 98 111 145 146 157 159 161 162 158 152 152 154 158 164
234 238 245 251 257 268 285 302 310 321 330 342 354 4 11 20 29 33 38 41 43 45 48 52 53 61 73 77 82 76 68 69 78 86 101 146 155 161 163 164 164 160 155 153 153 157 160
232 235 244 247 250 256 267 280 300 301 325 326 337 352 5 12 26 34 38 41 45 51 54 55 59 59 62 71 80 81 84 80 76 72 89 132 150 156 163 167 171 168 162 158 158 163 169
231 233 236 242 248 252 255 264 279 289 297 324 314 327 344 357 14 32 39 44 48 50 59 65 65 67 67 66 68 75 87 86 91 86 86 98 122 141 155 165 170 172 168 166 168 174 187
230 232 236 240 244 248 254 258 265 279 282 292 316 304 314 330 347 12 35 39 47 54 56 62 71 75 79 80 80 81 82 83 94 100 105 103 113 109 116 123 133 138 142 146 157 183 206
229 231 235 238 241 244 250 252 257 261 271 272 287 298 285 292 309 330 1 33 42 46 54 59 63 68 73 76 80 87 92 98 102 104 108 113 111 113 119 128 135 141 147 154 171 211 244
227 230 233 236 239 242 248 252 255 257 261 268 270 283 282 272 277 286 296 324 11 33 40 48 57 66 71 76 78 81 84 88 98 106 112 116 121 127 129 130 128 128 136 142 151 179 255
227 228 231 234 239 241 244 250 254 256 255 260 262 264 275 273 266 273 276 277 288 311 338 356 16 33 62 77 80 86 88 92 100 100 102 104 106 107 105 102 98 99 98 95 358 298 284
226 227 230 234 238 242 243 247 251 256 256 256 260 257 257 269 269 265 266 269 273 278 284 288 289 293 286 250 149 103 95 104 117 113 110 117 126 120 113 111 116 63 77 72 306 302 304
224 226 229 232 238 241 242 246 247 250 256 256 256 258 255 255 267 265 261 261 266 270 272 273 271 268 261 249 238 221 218 210 215 199 341 191 192 173 154 360 317 319 311 311 304 300 308
224 227 230 232 235 239 241 243 246 249 254 258 258 259 263 253 254 260 261 260 259 263 267 272 272 263 259 260 257 252 255 244 241 245 260 269 252 261 269 290 289 294 297 302 305 307 309
229 229 227 230 232 237 240 242 243 244 248 255 258 256 263 257 252 252 258 258 260 260 263 268 269 266 263 263 263 263 259 254 255 263 275 284 288 288 295 301 299 302 302 301 301 303 306